| time (UTC) | temp F | wind direction | speed knots | gust knots | rain 1hr in | rain 24hr in | rain mn in | humidity % | barometer mb |
| 20260510051504 | 47 | 285 | 3.5 | 4.3 | 0.00 | 0.00 | 0.00 | 100 | 1016.6 |
| 20260510051004 | 48 | 293 | 2.6 | 2.6 | 0.00 | 0.00 | 0.00 | 100 | 1016.4 |
| 20260510050504 | 48 | 292 | 2.6 | 2.6 | 0.00 | 0.00 | 0.00 | 100 | 1016.4 |
| 20260510050004 | 48 | 290 | 2.6 | 2.6 | 0.00 | 0.00 | 0.00 | 100 | 1016.4 |
| 20260510045004 | 49 | 298 | 2.6 | 2.6 | 0.00 | 0.00 | 0.00 | 100 | 1016.3 |
| 20260510044504 | 49 | 306 | 2.6 | 2.6 | 0.00 | 0.00 | 0.00 | 100 | 1016.2 |
| 20260510044003 | 49 | 302 | 2.6 | 2.6 | 0.00 | 0.00 | 0.00 | 100 | 1016.0 |
| 20260510041004 | 50 | 282 | 2.6 | 2.6 | 0.00 | 0.00 | 0.00 | 100 | 1015.6 |
| 20260510040006 | 51 | 291 | 2.6 | 4.3 | 0.00 | 0.00 | 0.00 | 100 | 1015.6 |
| 20260510035506 | 52 | 299 | 3.5 | 4.3 | 0.00 | 0.00 | 0.00 | 100 | 1015.5 |
| 20260510035005 | 52 | 302 | 2.6 | 2.6 | 0.00 | 0.00 | 0.00 | 100 | 1015.4 |
| 20260510034505 | 52 | 299 | 2.6 | 2.6 | 0.00 | 0.00 | 0.00 | 100 | 1015.2 |
| 20260510034006 | 52 | 313 | 2.6 | 2.6 | 0.00 | 0.00 | 0.00 | 100 | 1015.2 |
| 20260510031505 | 54 | 319 | 2.6 | 5.2 | 0.00 | 0.00 | 0.00 | 100 | 1014.8 |
| 20260510025505 | 55 | 328 | 2.6 | 2.6 | 0.00 | 0.00 | 0.00 | 100 | 1014.6 |
| 20260510025005 | 56 | 321 | 2.6 | 4.3 | 0.00 | 0.00 | 0.00 | 100 | 1014.5 |
| 20260510024506 | 56 | 318 | 2.6 | 4.3 | 0.00 | 0.00 | 0.00 | 100 | 1014.3 |
| 20260510024006 | 56 | 322 | 2.6 | 4.3 | 0.00 | 0.00 | 0.00 | 100 | 1014.2 |
| 20260510023006 | 57 | 314 | 3.5 | 7.0 | 0.00 | 0.00 | 0.00 | 100 | 1014.1 |
| 20260510022005 | 58 | 322 | 5.2 | 7.8 | 0.00 | 0.00 | 0.00 | 100 | 1013.8 |
| 20260510021506 | 58 | 317 | 5.2 | 8.7 | 0.00 | 0.00 | 0.00 | 100 | 1013.6 |
| 20260510021006 | 58 | 317 | 5.2 | 7.8 | 0.00 | 0.00 | 0.00 | 100 | 1013.6 |
| 20260510013005 | 61 | 304 | 5.2 | 8.7 | 0.00 | 0.00 | 0.00 | 100 | 1012.5 |
| 20260510012005 | 62 | 311 | 7.8 | 10.4 | 0.00 | 0.00 | 0.00 | 100 | 1012.3 |
| 20260510011505 | 63 | 314 | 7.8 | 10.4 | 0.00 | 0.00 | 0.00 | 100 | 1012.1 |
| 20260510011006 | 63 | 319 | 6.1 | 10.4 | 0.00 | 0.00 | 0.00 | 100 | 1011.9 |
| 20260510010006 | 64 | 323 | 6.1 | 10.4 | 0.00 | 0.00 | 0.00 | 100 | 1011.7 |
| 20260510005505 | 64 | 319 | 7.8 | 10.4 | 0.00 | 0.00 | 0.00 | 100 | 1011.9 |
| 20260510005005 | 64 | 315 | 7.8 | 12.2 | 0.00 | 0.00 | 0.00 | 100 | 1011.7 |
| 20260510004005 | 65 | 320 | 8.7 | 12.2 | 0.00 | 0.00 | 0.00 | 100 | 1011.5 |
| 20260510003505 | 65 | 314 | 6.1 | 12.2 | 0.00 | 0.00 | 0.00 | 100 | 1011.3 |
| 20260510002005 | 66 | 319 | 9.6 | 17.4 | 0.00 | 0.00 | 0.00 | 100 | 1011.2 |
| 20260510001505 | 66 | 303 | 12.2 | 17.4 | 0.00 | 0.00 | 0.00 | 100 | 1011.1 |
| 20260510001005 | 67 | 303 | 11.3 | 17.4 | 0.00 | 0.00 | 0.00 | 100 | 1011.0 |
| 20260510000505 | 67 | 313 | 10.4 | 17.4 | 0.00 | 0.00 | 0.00 | 100 | 1010.7 |
| 20260510000005 | 67 | 325 | 13.0 | 20.0 | 0.00 | 0.00 | 0.00 | 100 | 1010.8 |
| 20260509235006 | 67 | 301 | 11.3 | 17.4 | 0.00 | 0.00 | 0.00 | 100 | 1010.7 |
| 20260509234005 | 67 | 317 | 11.3 | 15.6 | 0.00 | 0.00 | 0.00 | 100 | 1010.4 |
| 20260509232505 | 69 | 303 | 13.0 | 20.0 | 0.00 | 0.00 | 0.00 | 100 | 1010.4 |
| 20260509230005 | 70 | 299 | 12.2 | 20.0 | 0.00 | 0.00 | 0.00 | 100 | 1009.8 |
| 20260509225505 | 71 | 306 | 12.2 | 18.2 | 0.00 | 0.00 | 0.00 | 100 | 1009.7 |
| 20260509223505 | 71 | 306 | 15.6 | 22.6 | 0.00 | 0.00 | 0.00 | 100 | 1009.4 |
| 20260509223005 | 72 | 317 | 14.8 | 20.0 | 0.00 | 0.00 | 0.00 | 100 | 1009.4 |
| 20260509221506 | 72 | 313 | 15.6 | 20.0 | 0.00 | 0.00 | 0.00 | 100 | 1009.0 |
| 20260509220005 | 73 | 286 | 10.4 | 17.4 | 0.00 | 0.00 | 0.00 | 100 | 1008.8 |
| 20260509215005 | 73 | 315 | 15.6 | 21.7 | 0.00 | 0.00 | 0.00 | 100 | 1008.8 |
| 20260509214505 | 72 | 286 | 9.6 | 21.7 | 0.00 | 0.00 | 0.00 | 100 | 1008.9 |
| 20260509214006 | 72 | 286 | 19.1 | 26.9 | 0.00 | 0.00 | 0.00 | 100 | 1008.8 |
| 20260509213505 | 72 | 301 | 18.2 | 22.6 | 0.00 | 0.00 | 0.00 | 100 | 1008.9 |
| 20260509213006 | 72 | 271 | 14.8 | 18.2 | 0.00 | 0.00 | 0.00 | 100 | 1008.8 |
| 20260509212005 | 72 | 279 | 13.9 | 17.4 | 0.00 | 0.00 | 0.00 | 100 | 1008.8 |
| 20260509204505 | 70 | 275 | 13.0 | 19.1 | 0.00 | 0.00 | 0.00 | 100 | 1008.7 |
| 20260509204005 | 71 | 257 | 12.2 | 18.2 | 0.00 | 0.00 | 0.00 | 100 | 1008.8 |
| 20260509203505 | 72 | 258 | 14.8 | 24.3 | 0.00 | 0.00 | 0.00 | 100 | 1008.9 |
| 20260509203005 | 72 | 264 | 13.0 | 19.1 | 0.00 | 0.00 | 0.00 | 100 | 1008.8 |
| 20260509202505 | 73 | 257 | 13.9 | 19.1 | 0.00 | 0.00 | 0.00 | 100 | 1008.8 |
| 20260509201505 | 71 | 272 | 13.9 | 20.0 | 0.00 | 0.00 | 0.00 | 100 | 1009.0 |
| 20260509195004 | 67 | 265 | 8.7 | 14.8 | 0.00 | 0.00 | 0.00 | 100 | 1008.8 |
| 20260509194505 | 67 | 270 | 12.2 | 14.8 | 0.00 | 0.00 | 0.00 | 100 | 1008.8 |
| 20260509193005 | 69 | 261 | 12.2 | 17.4 | 0.00 | 0.00 | 0.00 | 100 | 1008.7 |
| 20260509192004 | 69 | 274 | 11.3 | 20.0 | 0.00 | 0.00 | 0.00 | 100 | 1008.7 |
| 20260509191005 | 71 | 277 | 13.0 | 21.7 | 0.00 | 0.00 | 0.00 | 100 | 1008.6 |
| 20260509190006 | 71 | 282 | 18.2 | 25.2 | 0.00 | 0.00 | 0.00 | 100 | 1008.4 |
| 20260509185005 | 71 | 305 | 17.4 | 22.6 | 0.00 | 0.00 | 0.00 | 100 | 1008.1 |
| 20260509184505 | 70 | 277 | 20.9 | 26.9 | 0.00 | 0.00 | 0.00 | 100 | 1008.1 |
| 20260509182505 | 70 | 299 | 13.9 | 25.2 | 0.00 | 0.00 | 0.00 | 100 | 1008.1 |
| 20260509182005 | 71 | 292 | 13.9 | 22.6 | 0.00 | 0.00 | 0.00 | 100 | 1008.0 |
| 20260509181505 | 71 | 293 | 14.8 | 20.0 | 0.00 | 0.00 | 0.00 | 100 | 1007.8 |
| 20260509181005 | 72 | 282 | 14.8 | 24.3 | 0.00 | 0.00 | 0.00 | 100 | 1007.7 |
| 20260509180005 | 72 | 298 | 13.9 | 18.2 | 0.00 | 0.00 | 0.00 | 100 | 1007.7 |
| 20260509175505 | 71 | 295 | 13.9 | 19.1 | 0.00 | 0.00 | 0.00 | 100 | 1007.7 |
| 20260509175004 | 70 | 283 | 13.0 | 18.2 | 0.00 | 0.00 | 0.00 | 100 | 1007.6 |
| 20260509174504 | 70 | 300 | 14.8 | 20.0 | 0.00 | 0.00 | 0.00 | 100 | 1007.8 |
| 20260509174004 | 70 | 270 | 11.3 | 17.4 | 0.00 | 0.00 | 0.00 | 100 | 1007.6 |
| 20260509173505 | 71 | 276 | 13.0 | 17.4 | 0.00 | 0.00 | 0.00 | 100 | 1007.6 |
| 20260509171504 | 72 | 270 | 15.6 | 25.2 | 0.00 | 0.00 | 0.00 | 100 | 1007.8 |
| 20260509171004 | 72 | 292 | 14.8 | 24.3 | 0.00 | 0.00 | 0.00 | 100 | 1007.8 |
| 20260509170504 | 73 | 287 | 14.8 | 24.3 | 0.00 | 0.00 | 0.00 | 100 | 1007.8 |
| 20260509170004 | 73 | 282 | 12.2 | 24.3 | 0.00 | 0.00 | 0.00 | 100 | 1007.8 |
| 20260509165504 | 74 | 271 | 18.2 | 26.9 | 0.00 | 0.00 | 0.00 | 100 | 1007.8 |
| 20260509165005 | 74 | 274 | 18.2 | 27.8 | 0.00 | 0.00 | 0.00 | 100 | 1007.8 |
| 20260509164505 | 74 | 291 | 17.4 | 21.7 | 0.00 | 0.00 | 0.00 | 100 | 1007.7 |
| 20260509164004 | 73 | 284 | 15.6 | 24.3 | 0.00 | 0.00 | 0.00 | 100 | 1007.8 |
| 20260509163504 | 73 | 250 | 13.9 | 19.1 | 0.00 | 0.00 | 0.00 | 100 | 1007.8 |
| 20260509163005 | 72 | 250 | 13.9 | 20.0 | 0.00 | 0.00 | 0.00 | 100 | 1007.8 |
| 20260509162005 | 72 | 275 | 14.8 | 20.9 | 0.00 | 0.00 | 0.00 | 100 | 1007.8 |
| 20260509161504 | 72 | 268 | 13.0 | 17.4 | 0.00 | 0.00 | 0.00 | 100 | 1007.8 |
| 20260509160505 | 71 | 279 | 13.9 | 20.9 | 0.00 | 0.00 | 0.00 | 100 | 1007.9 |
| 20260509160005 | 71 | 289 | 13.9 | 20.0 | 0.00 | 0.00 | 0.00 | 100 | 1008.0 |
| 20260509155504 | 72 | 286 | 19.1 | 24.3 | 0.00 | 0.00 | 0.00 | 100 | 1007.9 |
| 20260509154505 | 72 | 276 | 17.4 | 22.6 | 0.00 | 0.00 | 0.00 | 100 | 1008.0 |
| 20260509154005 | 71 | 289 | 16.5 | 30.4 | 0.00 | 0.00 | 0.00 | 100 | 1008.0 |
| 20260509153504 | 71 | 283 | 17.4 | 25.2 | 0.00 | 0.00 | 0.00 | 100 | 1008.0 |
| 20260509152005 | 71 | 272 | 17.4 | 24.3 | 0.00 | 0.00 | 0.00 | 100 | 1007.7 |
| 20260509151505 | 71 | 264 | 12.2 | 20.0 | 0.00 | 0.00 | 0.00 | 100 | 1007.6 |
| 20260509150505 | 70 | 255 | 9.6 | 15.6 | 0.00 | 0.00 | 0.00 | 100 | 1007.5 |
| 20260509145505 | 70 | 277 | 11.3 | 15.6 | 0.00 | 0.00 | 0.00 | 100 | 1007.3 |
| 20260509144005 | 68 | 265 | 9.6 | 13.9 | 0.00 | 0.00 | 0.00 | 100 | 1007.5 |
| 20260509143005 | 67 | 239 | 4.3 | 10.4 | 0.00 | 0.00 | 0.00 | 100 | 1007.5 |
| 20260509142004 | 66 | 273 | 6.1 | 8.7 | 0.00 | 0.00 | 0.00 | 100 | 1007.6 |
| 20260509141505 | 66 | 272 | 6.1 | 10.4 | 0.00 | 0.00 | 0.00 | 100 | 1007.6 |
| 20260509141004 | 65 | 256 | 4.3 | 7.0 | 0.00 | 0.00 | 0.00 | 100 | 1007.4 |
| 20260509134504 | 61 | 260 | 2.6 | 6.1 | 0.00 | 0.00 | 0.00 | 100 | 1007.7 |
| 20260509134004 | 60 | 248 | 1.7 | 4.3 | 0.00 | 0.00 | 0.00 | 100 | 1007.5 |
| 20260509132005 | 57 | 238 | 4.3 | 7.0 | 0.00 | 0.00 | 0.00 | 100 | 1007.2 |
| 20260509131004 | 56 | 217 | 2.6 | 4.3 | 0.00 | 0.00 | 0.00 | 100 | 1007.2 |
| 20260509130505 | 55 | 235 | 2.6 | 4.3 | 0.00 | 0.00 | 0.00 | 100 | 1007.1 |
| 20260509125004 | 53 | 211 | 4.3 | 4.3 | 0.00 | 0.00 | 0.00 | 100 | 1007.0 |
| 20260509124505 | 53 | 207 | 2.6 | 2.6 | 0.00 | 0.00 | 0.00 | 100 | 1007.0 |
| 20260509124005 | 52 | 188 | 2.6 | 4.3 | 0.00 | 0.00 | 0.00 | 100 | 1007.0 |
| 20260509122504 | 50 | 202 | 0.9 | 1.7 | 0.00 | 0.00 | 0.00 | 100 | 1007.0 |
| 20260509121004 | 49 | 211 | 0.9 | 0.9 | 0.00 | 0.00 | 0.00 | 100 | 1006.8 |
| 20260509120504 | 48 | 211 | 0.0 | 1.7 | 0.00 | 0.00 | 0.00 | 100 | 1006.8 |
| 20260509115504 | 48 | 211 | 0.0 | 1.7 | 0.00 | 0.00 | 0.00 | 100 | 1006.7 |
| 20260509115005 | 48 | 211 | 0.0 | 1.7 | 0.00 | 0.00 | 0.00 | 100 | 1006.7 |
| 20260509113504 | 47 | 198 | 0.9 | 1.7 | 0.00 | 0.00 | 0.00 | 100 | 1006.7 |
| 20260509112505 | 47 | 198 | 0.9 | 0.9 | 0.00 | 0.00 | 0.00 | 100 | 1006.5 |
| 20260509111504 | 47 | 198 | 0.9 | 1.7 | 0.00 | 0.00 | 0.00 | 100 | 1006.5 |
| 20260509110504 | 47 | 198 | 2.6 | 2.6 | 0.00 | 0.00 | 0.00 | 100 | 1006.3 |
| 20260509105004 | 48 | 232 | 1.7 | 1.7 | 0.00 | 0.00 | 0.00 | 100 | 1006.4 |
| 20260509104004 | 49 | 232 | 1.7 | 1.7 | 0.00 | 0.00 | 0.00 | 100 | 1006.3 |
| 20260509103503 | 49 | 242 | 1.7 | 1.7 | 0.00 | 0.00 | 0.00 | 100 | 1006.4 |
| 20260509103004 | 49 | 242 | 0.9 | 1.7 | 0.00 | 0.00 | 0.00 | 100 | 1006.4 |
| 20260509102504 | 49 | 242 | 0.9 | 1.7 | 0.00 | 0.00 | 0.00 | 100 | 1006.4 |
| 20260509102004 | 49 | 242 | 1.7 | 1.7 | 0.00 | 0.00 | 0.00 | 100 | 1006.4 |
| 20260509095504 | 50 | 232 | 1.7 | 2.6 | 0.00 | 0.00 | 0.00 | 100 | 1006.3 |
| 20260509094004 | 50 | 244 | 2.6 | 2.6 | 0.00 | 0.00 | 0.00 | 100 | 1006.3 |
| 20260509092504 | 50 | 236 | 2.6 | 4.3 | 0.00 | 0.00 | 0.00 | 100 | 1006.2 |
| 20260509091504 | 50 | 244 | 2.6 | 2.6 | 0.00 | 0.00 | 0.00 | 100 | 1006.6 |
| 20260509091004 | 50 | 236 | 2.6 | 2.6 | 0.00 | 0.00 | 0.00 | 100 | 1006.5 |
| 20260509090004 | 50 | 225 | 1.7 | 2.6 | 0.00 | 0.00 | 0.00 | 100 | 1006.5 |
| 20260509085504 | 51 | 244 | 1.7 | 2.6 | 0.00 | 0.00 | 0.00 | 100 | 1006.5 |
| 20260509084004 | 51 | 271 | 1.7 | 1.7 | 0.00 | 0.00 | 0.00 | 100 | 1006.2 |
| 20260509083504 | 51 | 270 | 0.9 | 2.6 | 0.00 | 0.00 | 0.00 | 100 | 1006.0 |
| 20260509082004 | 51 | 210 | 2.6 | 4.3 | 0.00 | 0.00 | 0.00 | 100 | 1006.0 |
| 20260509080004 | 51 | 199 | 2.6 | 2.6 | 0.00 | 0.00 | 0.00 | 100 | 1006.2 |
| 20260509075504 | 52 | 196 | 2.6 | 2.6 | 0.00 | 0.00 | 0.00 | 100 | 1006.3 |
| 20260509073004 | 52 | 195 | 0.9 | 1.7 | 0.00 | 0.00 | 0.00 | 100 | 1006.4 |
| 20260509065504 | 53 | 138 | 0.9 | 1.7 | 0.00 | 0.00 | 0.00 | 100 | 1006.7 |
| 20260509065004 | 54 | 197 | 0.0 | 2.6 | 0.00 | 0.00 | 0.00 | 100 | 1006.6 |
| 20260509064504 | 54 | 190 | 0.9 | 1.7 | 0.00 | 0.00 | 0.00 | 100 | 1006.7 |
| 20260509064004 | 54 | 215 | 0.0 | 2.6 | 0.00 | 0.00 | 0.00 | 100 | 1006.7 |
| 20260509063004 | 54 | 208 | 1.7 | 2.6 | 0.00 | 0.00 | 0.00 | 100 | 1006.8 |
| 20260509062503 | 54 | 203 | 2.6 | 5.2 | 0.00 | 0.00 | 0.00 | 100 | 1006.8 |
| 20260509060004 | 55 | 193 | 4.3 | 6.1 | 0.00 | 0.00 | 0.00 | 100 | 1006.7 |
| 20260509055004 | 55 | 211 | 2.6 | 7.0 | 0.00 | 0.00 | 0.00 | 100 | 1006.7 |
| 20260509054504 | 55 | 207 | 2.6 | 6.1 | 0.00 | 0.00 | 0.00 | 100 | 1006.7 |
| 20260509053503 | 55 | 199 | 4.3 | 7.8 | 0.00 | 0.00 | 0.00 | 100 | 1006.7 |
| 20260509053004 | 55 | 204 | 5.2 | 7.8 | 0.00 | 0.00 | 0.00 | 100 | 1006.7 |